Year,Month,Day,Hour,Minute,Value (Times are PST for temperature in C)
2019,10,18,00,00,10.10
2019,10,18,00,01,10.10
2019,10,18,00,02,10.10
2019,10,18,00,03,10.10
2019,10,18,00,04,10.10
2019,10,18,00,05,10.10
2019,10,18,00,06,10.00
2019,10,18,00,07,10.00
2019,10,18,00,08,9.90
2019,10,18,00,09,9.90
2019,10,18,00,10,9.90
2019,10,18,00,11,9.90
2019,10,18,00,12,9.90
2019,10,18,00,13,10.00
2019,10,18,00,14,10.00
2019,10,18,00,15,10.10
2019,10,18,00,16,10.10
2019,10,18,00,17,10.10
2019,10,18,00,18,10.00
2019,10,18,00,19,10.00
2019,10,18,00,20,10.00
2019,10,18,00,21,10.00
2019,10,18,00,22,10.00
2019,10,18,00,23,9.90
2019,10,18,00,24,9.90
2019,10,18,00,25,9.80
2019,10,18,00,26,9.80
2019,10,18,00,27,9.80
2019,10,18,00,28,9.70
2019,10,18,00,29,9.70
2019,10,18,00,30,9.70
2019,10,18,00,31,9.70
2019,10,18,00,32,9.70
2019,10,18,00,33,9.70
2019,10,18,00,34,9.70
2019,10,18,00,35,9.60
2019,10,18,00,36,9.60
2019,10,18,00,37,9.60
2019,10,18,00,38,9.60
2019,10,18,00,39,9.60
2019,10,18,00,40,9.60
2019,10,18,00,41,9.60
2019,10,18,00,42,9.60
2019,10,18,00,43,9.50
2019,10,18,00,44,9.40
2019,10,18,00,45,9.30
2019,10,18,00,46,9.20
2019,10,18,00,47,9.20
2019,10,18,00,48,9.10
2019,10,18,00,49,9.10
2019,10,18,00,50,9.00
2019,10,18,00,51,8.90
2019,10,18,00,52,8.90
2019,10,18,00,53,8.80
2019,10,18,00,54,8.80
2019,10,18,00,55,8.80
2019,10,18,00,56,8.80
2019,10,18,00,57,8.80
2019,10,18,00,58,8.90
2019,10,18,00,59,8.90
2019,10,18,01,00,8.90
2019,10,18,01,01,8.90
2019,10,18,01,02,8.90
2019,10,18,01,03,8.90
2019,10,18,01,04,8.90
2019,10,18,01,05,8.90
2019,10,18,01,06,8.90
2019,10,18,01,07,8.90
2019,10,18,01,08,8.90
2019,10,18,01,09,8.90
2019,10,18,01,10,9.00
2019,10,18,01,11,9.00
2019,10,18,01,12,9.00
2019,10,18,01,13,9.10
2019,10,18,01,14,9.10
2019,10,18,01,15,9.10
2019,10,18,01,16,9.10
2019,10,18,01,17,9.10
2019,10,18,01,18,9.10
2019,10,18,01,19,9.10
2019,10,18,01,20,9.20
2019,10,18,01,21,9.10
2019,10,18,01,22,9.10
2019,10,18,01,23,9.10
2019,10,18,01,24,9.10
2019,10,18,01,25,9.00
2019,10,18,01,26,9.00
2019,10,18,01,27,8.90
2019,10,18,01,28,8.90
2019,10,18,01,29,8.80
2019,10,18,01,30,8.70
2019,10,18,01,31,8.70
2019,10,18,01,32,8.70
2019,10,18,01,33,8.70
2019,10,18,01,34,8.70
2019,10,18,01,35,8.70
2019,10,18,01,36,8.70
2019,10,18,01,37,8.70
2019,10,18,01,38,8.80
2019,10,18,01,39,8.80
2019,10,18,01,40,8.70
2019,10,18,01,41,8.70
2019,10,18,01,42,8.70
2019,10,18,01,43,8.60
2019,10,18,01,44,8.60
2019,10,18,01,45,8.60
2019,10,18,01,46,8.60
2019,10,18,01,47,8.60
2019,10,18,01,48,8.50
2019,10,18,01,49,8.50
2019,10,18,01,50,8.50
2019,10,18,01,51,8.50
2019,10,18,01,52,8.40
2019,10,18,01,53,8.40
2019,10,18,01,54,8.40
2019,10,18,01,55,8.40
2019,10,18,01,56,8.30
2019,10,18,01,57,8.30
2019,10,18,01,58,8.30
2019,10,18,01,59,8.30
2019,10,18,02,00,8.20
2019,10,18,02,01,8.20
2019,10,18,02,02,8.10
2019,10,18,02,03,8.10
2019,10,18,02,04,8.10
2019,10,18,02,05,8.00
2019,10,18,02,06,8.00
2019,10,18,02,07,7.90
2019,10,18,02,08,7.80
2019,10,18,02,09,7.80
2019,10,18,02,10,7.80
2019,10,18,02,11,7.80
2019,10,18,02,12,7.80
2019,10,18,02,13,7.80
2019,10,18,02,14,7.80
2019,10,18,02,15,7.80
2019,10,18,02,16,7.80
2019,10,18,02,17,7.80
2019,10,18,02,18,7.80
2019,10,18,02,19,7.80
2019,10,18,02,20,7.70
2019,10,18,02,21,7.70
2019,10,18,02,22,7.70
2019,10,18,02,23,7.70
2019,10,18,02,24,7.90
2019,10,18,02,25,8.00
2019,10,18,02,26,8.20
2019,10,18,02,27,8.20
2019,10,18,02,28,8.30
2019,10,18,02,29,8.40
2019,10,18,02,30,8.50
2019,10,18,02,31,8.60
2019,10,18,02,32,8.60
2019,10,18,02,33,8.70
2019,10,18,02,34,8.60
2019,10,18,02,35,8.50
2019,10,18,02,36,8.40
2019,10,18,02,37,8.30
2019,10,18,02,38,8.20
2019,10,18,02,39,8.10
2019,10,18,02,40,8.00
2019,10,18,02,41,8.00
2019,10,18,02,42,8.10
2019,10,18,02,43,8.20
2019,10,18,02,44,8.40
2019,10,18,02,45,8.50
2019,10,18,02,46,8.60
2019,10,18,02,47,8.80
2019,10,18,02,48,9.10
2019,10,18,02,49,9.60
2019,10,18,02,50,10.00
2019,10,18,02,51,10.20
2019,10,18,02,52,10.50
2019,10,18,02,53,10.70
2019,10,18,02,54,10.90
2019,10,18,02,55,11.10
2019,10,18,02,56,11.20
2019,10,18,02,57,11.40
2019,10,18,02,58,11.40
2019,10,18,02,59,11.40
2019,10,18,03,00,11.50
2019,10,18,03,01,11.50
2019,10,18,03,02,11.40
2019,10,18,03,03,11.50
2019,10,18,03,04,11.50
2019,10,18,03,05,11.40
2019,10,18,03,06,11.40
2019,10,18,03,07,11.50
2019,10,18,03,08,11.50
2019,10,18,03,09,11.50
2019,10,18,03,10,11.50
2019,10,18,03,11,11.50
2019,10,18,03,12,11.40
2019,10,18,03,13,11.30
2019,10,18,03,14,11.30
2019,10,18,03,15,11.20
2019,10,18,03,16,11.10
2019,10,18,03,17,11.10
2019,10,18,03,18,11.00
2019,10,18,03,19,11.00
2019,10,18,03,20,10.90
2019,10,18,03,21,10.90
2019,10,18,03,22,10.90
2019,10,18,03,23,10.90
2019,10,18,03,24,10.90
2019,10,18,03,25,10.80
2019,10,18,03,26,10.80
2019,10,18,03,27,10.80
2019,10,18,03,28,10.80
2019,10,18,03,29,10.70
2019,10,18,03,30,10.70
2019,10,18,03,31,10.60
2019,10,18,03,32,10.50
2019,10,18,03,33,10.50
2019,10,18,03,34,10.40
2019,10,18,03,35,10.30
2019,10,18,03,36,10.30
2019,10,18,03,37,10.20
2019,10,18,03,38,10.10
2019,10,18,03,39,10.00
2019,10,18,03,40,10.00
2019,10,18,03,41,9.90
2019,10,18,03,42,9.80
2019,10,18,03,43,9.70
2019,10,18,03,44,9.60
2019,10,18,03,45,9.50
2019,10,18,03,46,9.40
2019,10,18,03,47,9.30
2019,10,18,03,48,9.20
2019,10,18,03,49,9.20
2019,10,18,03,50,9.10
2019,10,18,03,51,9.10
2019,10,18,03,52,9.10
2019,10,18,03,53,9.00
2019,10,18,03,54,8.90
2019,10,18,03,55,8.80
2019,10,18,03,56,8.80
2019,10,18,03,57,8.70
2019,10,18,03,58,8.60
2019,10,18,03,59,8.50
2019,10,18,04,00,8.50
2019,10,18,04,01,8.40
2019,10,18,04,02,8.40
2019,10,18,04,03,8.30
2019,10,18,04,04,8.30
2019,10,18,04,05,8.20
2019,10,18,04,06,8.20
2019,10,18,04,07,8.20
2019,10,18,04,08,8.10
2019,10,18,04,09,8.00
2019,10,18,04,10,8.00
2019,10,18,04,11,7.90
2019,10,18,04,12,7.80
2019,10,18,04,13,7.80
2019,10,18,04,14,7.80
2019,10,18,04,15,7.80
2019,10,18,04,16,7.80
2019,10,18,04,17,7.80
2019,10,18,04,18,7.80
2019,10,18,04,19,7.80
2019,10,18,04,20,7.90
2019,10,18,04,21,7.90
2019,10,18,04,22,8.00
2019,10,18,04,23,8.00
2019,10,18,04,24,8.10
2019,10,18,04,25,8.10
2019,10,18,04,26,8.20
2019,10,18,04,27,8.20
2019,10,18,04,28,8.30
2019,10,18,04,29,8.30
2019,10,18,04,30,8.30
2019,10,18,04,31,8.40
2019,10,18,04,32,8.40
2019,10,18,04,33,8.50
2019,10,18,04,34,8.50
2019,10,18,04,35,8.60
2019,10,18,04,36,8.60
2019,10,18,04,37,8.60
2019,10,18,04,38,8.60
2019,10,18,04,39,8.70
2019,10,18,04,40,8.70
2019,10,18,04,41,8.70
2019,10,18,04,42,8.90
2019,10,18,04,43,9.10
2019,10,18,04,44,9.20
2019,10,18,04,45,9.50
2019,10,18,04,46,9.80
2019,10,18,04,47,10.00
2019,10,18,04,48,10.20
2019,10,18,04,49,10.30
2019,10,18,04,50,10.40
2019,10,18,04,51,10.50
2019,10,18,04,52,10.50
2019,10,18,04,53,10.60
2019,10,18,04,54,10.70
2019,10,18,04,55,10.70
2019,10,18,04,56,10.70
2019,10,18,04,57,10.80
2019,10,18,04,58,10.90
2019,10,18,04,59,10.90
2019,10,18,05,00,10.90
2019,10,18,05,01,11.00
2019,10,18,05,02,11.00
2019,10,18,05,03,11.00
2019,10,18,05,04,11.00
2019,10,18,05,05,11.00
2019,10,18,05,06,10.90
2019,10,18,05,07,10.90
2019,10,18,05,08,10.90
2019,10,18,05,09,10.90
2019,10,18,05,10,10.80
2019,10,18,05,11,10.80
2019,10,18,05,12,10.80
2019,10,18,05,13,10.70
2019,10,18,05,14,10.60
2019,10,18,05,15,10.60
2019,10,18,05,16,10.50
2019,10,18,05,17,10.50
2019,10,18,05,18,10.50
2019,10,18,05,19,10.40
2019,10,18,05,20,10.30
2019,10,18,05,21,10.30
2019,10,18,05,22,10.30
2019,10,18,05,23,10.20
2019,10,18,05,24,10.20
2019,10,18,05,25,10.20
2019,10,18,05,26,10.10
2019,10,18,05,27,10.10
2019,10,18,05,28,10.10
2019,10,18,05,29,10.10
2019,10,18,05,30,10.10
2019,10,18,05,31,10.10
2019,10,18,05,32,10.00
2019,10,18,05,33,10.00
2019,10,18,05,34,9.90
2019,10,18,05,35,9.90
2019,10,18,05,36,9.90
2019,10,18,05,37,9.90
2019,10,18,05,38,9.80
2019,10,18,05,39,9.90
2019,10,18,05,40,9.80
2019,10,18,05,41,9.80
2019,10,18,05,42,9.80
2019,10,18,05,43,9.80
2019,10,18,05,44,9.70
2019,10,18,05,45,9.60
2019,10,18,05,46,9.60
2019,10,18,05,47,9.60
2019,10,18,05,48,9.50
2019,10,18,05,49,9.50
2019,10,18,05,50,9.40
2019,10,18,05,51,9.40
2019,10,18,05,52,9.40
2019,10,18,05,53,9.30
2019,10,18,05,54,9.30
2019,10,18,05,55,9.20
2019,10,18,05,56,9.20
2019,10,18,05,57,9.10
2019,10,18,05,58,9.10
2019,10,18,05,59,9.10
2019,10,18,06,00,9.00
2019,10,18,06,01,9.00
2019,10,18,06,02,8.90
2019,10,18,06,03,8.90
2019,10,18,06,04,8.80
2019,10,18,06,05,8.80
2019,10,18,06,06,8.70
2019,10,18,06,07,8.70
2019,10,18,06,08,8.70
2019,10,18,06,09,8.60
2019,10,18,06,10,8.60
2019,10,18,06,11,8.50
2019,10,18,06,12,8.50
2019,10,18,06,13,8.50
2019,10,18,06,14,8.60
2019,10,18,06,15,8.60
2019,10,18,06,16,8.60
2019,10,18,06,17,8.70
2019,10,18,06,18,8.70
2019,10,18,06,19,8.80
2019,10,18,06,20,8.90
2019,10,18,06,21,9.00
2019,10,18,06,22,9.10
2019,10,18,06,23,9.20
2019,10,18,06,24,9.30
2019,10,18,06,25,9.40
2019,10,18,06,26,9.50
2019,10,18,06,27,9.60
2019,10,18,06,28,9.60
2019,10,18,06,29,9.70
2019,10,18,06,30,9.70
2019,10,18,06,31,9.80
2019,10,18,06,32,9.80
2019,10,18,06,33,9.80
2019,10,18,06,34,9.90
2019,10,18,06,35,9.90
2019,10,18,06,36,9.80
2019,10,18,06,37,9.80
2019,10,18,06,38,9.80
2019,10,18,06,39,9.80
2019,10,18,06,40,9.80
2019,10,18,06,41,9.80
2019,10,18,06,42,9.80
2019,10,18,06,43,9.80
2019,10,18,06,44,9.80
2019,10,18,06,45,9.80
2019,10,18,06,46,9.80
2019,10,18,06,47,9.80
2019,10,18,06,48,9.80
2019,10,18,06,49,9.80
2019,10,18,06,50,9.80
2019,10,18,06,51,9.80
2019,10,18,06,52,9.80
2019,10,18,06,53,9.80
2019,10,18,06,54,9.80
2019,10,18,06,55,9.80
2019,10,18,06,56,9.80
2019,10,18,06,57,9.70
2019,10,18,06,58,9.70
2019,10,18,06,59,9.70
2019,10,18,07,00,9.70
2019,10,18,07,01,9.60
2019,10,18,07,02,9.60
2019,10,18,07,03,9.60
2019,10,18,07,04,9.60
2019,10,18,07,05,9.60
2019,10,18,07,06,9.60
2019,10,18,07,07,9.70
2019,10,18,07,08,9.70
2019,10,18,07,09,9.70
2019,10,18,07,10,9.70
2019,10,18,07,11,9.70
2019,10,18,07,12,9.70
2019,10,18,07,13,9.60
2019,10,18,07,14,9.60
2019,10,18,07,15,9.60
2019,10,18,07,16,9.60
2019,10,18,07,17,9.50
2019,10,18,07,18,9.50
2019,10,18,07,19,9.50
2019,10,18,07,20,9.50
2019,10,18,07,21,9.50
2019,10,18,07,22,9.50
2019,10,18,07,23,9.40
2019,10,18,07,24,9.40
2019,10,18,07,25,9.40
2019,10,18,07,26,9.40
2019,10,18,07,27,9.40
2019,10,18,07,28,9.30
2019,10,18,07,29,9.30
2019,10,18,07,30,9.30
2019,10,18,07,31,9.30
2019,10,18,07,32,9.30
2019,10,18,07,33,9.30
2019,10,18,07,34,9.30
2019,10,18,07,35,9.30
2019,10,18,07,36,9.20
2019,10,18,07,37,9.20
2019,10,18,07,38,9.20
2019,10,18,07,39,9.20
2019,10,18,07,40,9.30
2019,10,18,07,41,9.30
2019,10,18,07,42,9.40
2019,10,18,07,43,9.40
2019,10,18,07,44,9.40
2019,10,18,07,45,9.50
2019,10,18,07,46,9.50
2019,10,18,07,47,9.60
2019,10,18,07,48,9.50
2019,10,18,07,49,9.50
2019,10,18,07,50,9.50
2019,10,18,07,51,9.40
2019,10,18,07,52,9.40
2019,10,18,07,53,9.40
2019,10,18,07,54,9.30
2019,10,18,07,55,9.30
2019,10,18,07,56,9.20
2019,10,18,07,57,9.10
2019,10,18,07,58,9.10
2019,10,18,07,59,9.10
2019,10,18,08,00,9.00
2019,10,18,08,01,9.00
2019,10,18,08,02,9.00
2019,10,18,08,03,8.90
2019,10,18,08,04,8.90
2019,10,18,08,05,9.00
2019,10,18,08,06,9.10
2019,10,18,08,07,9.10
2019,10,18,08,08,9.10
2019,10,18,08,09,9.10
2019,10,18,08,10,9.10
2019,10,18,08,11,9.10
2019,10,18,08,12,9.10
2019,10,18,08,13,9.10
2019,10,18,08,14,9.00
2019,10,18,08,15,9.00
2019,10,18,08,16,9.00
2019,10,18,08,17,8.90
2019,10,18,08,18,8.90
2019,10,18,08,19,8.90
2019,10,18,08,20,8.90
2019,10,18,08,21,8.80
2019,10,18,08,22,8.80
2019,10,18,08,23,8.80
2019,10,18,08,24,8.80
2019,10,18,08,25,8.80
2019,10,18,08,26,8.80
2019,10,18,08,27,8.80
2019,10,18,08,28,8.70
2019,10,18,08,29,8.70
2019,10,18,08,30,8.70
2019,10,18,08,31,8.70
2019,10,18,08,32,8.70
2019,10,18,08,33,8.70
2019,10,18,08,34,8.70
2019,10,18,08,35,8.60
2019,10,18,08,36,8.60
2019,10,18,08,37,8.60
2019,10,18,08,38,8.60
2019,10,18,08,39,8.60
2019,10,18,08,40,8.60
2019,10,18,08,41,8.60
2019,10,18,08,42,8.60
2019,10,18,08,43,8.60
2019,10,18,08,44,8.70
2019,10,18,08,45,8.70
2019,10,18,08,46,8.70
2019,10,18,08,47,8.70
2019,10,18,08,48,8.70
2019,10,18,08,49,8.70
2019,10,18,08,50,8.80
2019,10,18,08,51,8.80
2019,10,18,08,52,8.80
2019,10,18,08,53,8.80
2019,10,18,08,54,8.80
2019,10,18,08,55,8.80
2019,10,18,08,56,8.90
2019,10,18,08,57,8.90
2019,10,18,08,58,8.90
2019,10,18,08,59,8.90
2019,10,18,09,00,8.90
2019,10,18,09,01,8.90
2019,10,18,09,02,8.90
2019,10,18,09,03,8.90
2019,10,18,09,04,8.90
2019,10,18,09,05,9.00
2019,10,18,09,06,9.00
2019,10,18,09,07,9.10
2019,10,18,09,08,9.10
2019,10,18,09,09,9.10
2019,10,18,09,10,9.20
2019,10,18,09,11,9.20
2019,10,18,09,12,9.20
2019,10,18,09,13,9.20
2019,10,18,09,14,9.20
2019,10,18,09,15,9.30
2019,10,18,09,16,9.30
2019,10,18,09,17,9.30
2019,10,18,09,18,9.30
2019,10,18,09,19,9.30
2019,10,18,09,20,9.30
2019,10,18,09,21,9.40
2019,10,18,09,22,9.40
2019,10,18,09,23,9.40
2019,10,18,09,24,9.40
2019,10,18,09,25,9.40
2019,10,18,09,26,9.50
2019,10,18,09,27,9.50
2019,10,18,09,28,9.60
2019,10,18,09,29,9.60
2019,10,18,09,30,9.70
2019,10,18,09,31,9.70
2019,10,18,09,32,9.70
2019,10,18,09,33,9.80
2019,10,18,09,34,9.80
2019,10,18,09,35,9.90
2019,10,18,09,36,9.90
2019,10,18,09,37,10.00
2019,10,18,09,38,10.00
2019,10,18,09,39,10.10
2019,10,18,09,40,10.10
2019,10,18,09,41,10.20
2019,10,18,09,42,10.20
2019,10,18,09,43,10.20
2019,10,18,09,44,10.20
2019,10,18,09,45,10.20
2019,10,18,09,46,10.30
2019,10,18,09,47,10.30
2019,10,18,09,48,10.30
2019,10,18,09,49,10.30
2019,10,18,09,50,10.30
2019,10,18,09,51,10.30
2019,10,18,09,52,10.30
2019,10,18,09,53,10.30
2019,10,18,09,54,10.30
2019,10,18,09,55,10.30
2019,10,18,09,56,10.30
2019,10,18,09,57,10.30
2019,10,18,09,58,10.30
2019,10,18,09,59,10.20
2019,10,18,10,00,10.20
2019,10,18,10,01,10.20
2019,10,18,10,02,10.20
2019,10,18,10,03,10.20
2019,10,18,10,04,10.20
2019,10,18,10,05,10.20
2019,10,18,10,06,10.20
2019,10,18,10,07,10.30
2019,10,18,10,08,10.30
2019,10,18,10,09,10.30
2019,10,18,10,10,10.30
2019,10,18,10,11,10.40
2019,10,18,10,12,10.40
2019,10,18,10,13,10.40
2019,10,18,10,14,10.40
2019,10,18,10,15,10.50
2019,10,18,10,16,10.50
2019,10,18,10,17,10.60
2019,10,18,10,18,10.60
2019,10,18,10,19,10.60
2019,10,18,10,20,10.60
2019,10,18,10,21,10.60
2019,10,18,10,22,10.60
2019,10,18,10,23,10.70
2019,10,18,10,24,10.70
2019,10,18,10,25,10.70
2019,10,18,10,26,10.70
2019,10,18,10,27,10.70
2019,10,18,10,28,10.80
2019,10,18,10,29,10.80
2019,10,18,10,30,10.80
2019,10,18,10,31,10.80
2019,10,18,10,32,10.80
2019,10,18,10,33,10.80
2019,10,18,10,34,10.80
2019,10,18,10,35,10.80
2019,10,18,10,36,10.80
2019,10,18,10,37,10.90
2019,10,18,10,38,10.80
2019,10,18,10,39,10.80
2019,10,18,10,40,10.80
2019,10,18,10,41,10.80
2019,10,18,10,42,10.80
2019,10,18,10,43,10.80
2019,10,18,10,44,10.80
2019,10,18,10,45,10.80
2019,10,18,10,46,10.80
2019,10,18,10,47,10.90
2019,10,18,10,48,10.90
2019,10,18,10,49,10.90
2019,10,18,10,50,10.90
2019,10,18,10,51,10.90
2019,10,18,10,52,10.90
2019,10,18,10,53,10.90
2019,10,18,10,54,10.90
2019,10,18,10,55,10.90
2019,10,18,10,56,11.00
2019,10,18,10,57,11.00
2019,10,18,10,58,11.10
2019,10,18,10,59,11.10
2019,10,18,11,00,11.20
2019,10,18,11,01,11.20
2019,10,18,11,02,11.30
2019,10,18,11,03,11.30
2019,10,18,11,04,11.30
2019,10,18,11,05,11.30
2019,10,18,11,06,11.30
2019,10,18,11,07,11.30
2019,10,18,11,08,11.30
2019,10,18,11,09,11.30
2019,10,18,11,10,11.30
2019,10,18,11,11,11.30
2019,10,18,11,12,11.20
2019,10,18,11,13,11.20
2019,10,18,11,14,11.20
2019,10,18,11,15,11.20
2019,10,18,11,16,11.20
2019,10,18,11,17,11.20
2019,10,18,11,18,11.20
2019,10,18,11,19,11.20
2019,10,18,11,20,11.20
2019,10,18,11,21,11.20
2019,10,18,11,22,11.20
2019,10,18,11,23,11.20
2019,10,18,11,24,11.20
2019,10,18,11,25,11.20
2019,10,18,11,26,11.20
2019,10,18,11,27,11.20
2019,10,18,11,28,11.20
2019,10,18,11,29,11.30
2019,10,18,11,30,11.30
2019,10,18,11,31,11.30
2019,10,18,11,32,11.30
2019,10,18,11,33,11.30
2019,10,18,11,34,11.30
2019,10,18,11,35,11.30
2019,10,18,11,36,11.30
2019,10,18,11,37,11.30
2019,10,18,11,38,11.30
2019,10,18,11,39,11.40
2019,10,18,11,40,11.40
2019,10,18,11,41,11.40
2019,10,18,11,42,11.40
2019,10,18,11,43,11.40
2019,10,18,11,44,11.50
2019,10,18,11,45,11.50
2019,10,18,11,46,11.50
2019,10,18,11,47,11.60
2019,10,18,11,48,11.60
2019,10,18,11,49,11.70
2019,10,18,11,50,11.70
2019,10,18,11,51,11.70
2019,10,18,11,52,11.80
2019,10,18,11,53,11.80
2019,10,18,11,54,11.90
2019,10,18,11,55,11.90
2019,10,18,11,56,11.90
2019,10,18,11,57,11.90
2019,10,18,11,58,11.90
2019,10,18,11,59,11.90
2019,10,18,12,00,11.90
2019,10,18,12,01,11.90
2019,10,18,12,02,11.90
2019,10,18,12,03,11.90
2019,10,18,12,04,12.00
2019,10,18,12,05,12.00
2019,10,18,12,06,12.10
2019,10,18,12,07,12.10
2019,10,18,12,08,12.20
2019,10,18,12,09,12.20
2019,10,18,12,10,12.20
2019,10,18,12,11,12.20
2019,10,18,12,12,12.30
2019,10,18,12,13,12.30
2019,10,18,12,14,12.30
2019,10,18,12,15,12.40
2019,10,18,12,16,12.40
2019,10,18,12,17,12.50
2019,10,18,12,18,12.50
2019,10,18,12,19,12.50
2019,10,18,12,20,12.50
2019,10,18,12,21,12.50
2019,10,18,12,22,12.50
2019,10,18,12,23,12.50
2019,10,18,12,24,12.40
2019,10,18,12,25,12.40
2019,10,18,12,26,12.40
2019,10,18,12,27,12.40
2019,10,18,12,28,12.40
2019,10,18,12,29,12.40
2019,10,18,12,30,12.40
2019,10,18,12,31,12.40
2019,10,18,12,32,12.50
2019,10,18,12,33,12.50
2019,10,18,12,34,12.50
2019,10,18,12,35,12.60
2019,10,18,12,36,12.60
2019,10,18,12,37,12.60
2019,10,18,12,38,12.60
2019,10,18,12,39,12.60
2019,10,18,12,40,12.60
2019,10,18,12,41,12.70
2019,10,18,12,42,12.70
2019,10,18,12,43,12.70
2019,10,18,12,44,12.70
2019,10,18,12,45,12.70
2019,10,18,12,46,12.70
2019,10,18,12,47,12.70
2019,10,18,12,48,12.70
2019,10,18,12,49,12.70
2019,10,18,12,50,12.80
2019,10,18,12,51,12.80
2019,10,18,12,52,12.80
2019,10,18,12,53,12.80
2019,10,18,12,54,12.80
2019,10,18,12,55,12.80
2019,10,18,12,56,12.80
2019,10,18,12,57,12.90
2019,10,18,12,58,12.90
2019,10,18,12,59,12.90
2019,10,18,13,00,12.90
2019,10,18,13,01,13.00
2019,10,18,13,02,13.00
2019,10,18,13,03,13.00
2019,10,18,13,04,13.00
2019,10,18,13,05,13.00
2019,10,18,13,06,13.00
2019,10,18,13,07,13.10
2019,10,18,13,08,13.10
2019,10,18,13,09,13.10
2019,10,18,13,10,13.10
2019,10,18,13,11,13.10
2019,10,18,13,12,13.00
2019,10,18,13,13,13.00
2019,10,18,13,14,13.00
2019,10,18,13,15,12.90
2019,10,18,13,16,12.90
2019,10,18,13,17,12.90
2019,10,18,13,18,12.90
2019,10,18,13,19,12.90
2019,10,18,13,20,12.90
2019,10,18,13,21,12.90
2019,10,18,13,22,12.90
2019,10,18,13,23,12.90
2019,10,18,13,24,12.90
2019,10,18,13,25,12.90
2019,10,18,13,26,12.90
2019,10,18,13,27,12.90
2019,10,18,13,28,12.90
2019,10,18,13,29,12.90
2019,10,18,13,30,12.90
2019,10,18,13,31,12.90
2019,10,18,13,32,13.00
2019,10,18,13,33,13.00
2019,10,18,13,34,13.00
2019,10,18,13,35,13.00
2019,10,18,13,36,13.00
2019,10,18,13,37,13.00
2019,10,18,13,38,13.00
2019,10,18,13,39,13.00
2019,10,18,13,40,13.00
2019,10,18,13,41,13.10
2019,10,18,13,42,13.10
2019,10,18,13,43,13.10
2019,10,18,13,44,13.10
2019,10,18,13,45,13.10
2019,10,18,13,46,13.20
2019,10,18,13,47,13.20
2019,10,18,13,48,13.20
2019,10,18,13,49,13.10
2019,10,18,13,50,13.00
2019,10,18,13,51,13.00
2019,10,18,13,52,12.90
2019,10,18,13,53,12.90
2019,10,18,13,54,12.80
2019,10,18,13,55,12.80
2019,10,18,13,56,12.80
2019,10,18,13,57,12.80
2019,10,18,13,58,12.80
2019,10,18,13,59,12.80
2019,10,18,14,00,12.90
2019,10,18,14,01,12.90
2019,10,18,14,02,12.90
2019,10,18,14,03,12.90
2019,10,18,14,04,13.00
2019,10,18,14,05,13.00
2019,10,18,14,06,13.00
2019,10,18,14,07,13.00
2019,10,18,14,08,13.10
2019,10,18,14,09,13.10
2019,10,18,14,10,13.10
2019,10,18,14,11,13.10
2019,10,18,14,12,13.10
2019,10,18,14,13,13.10
2019,10,18,14,14,13.10
2019,10,18,14,15,13.10
2019,10,18,14,16,13.10
2019,10,18,14,17,13.10
2019,10,18,14,18,13.10
2019,10,18,14,19,13.10
2019,10,18,14,20,13.10
2019,10,18,14,21,13.10
2019,10,18,14,22,13.10
2019,10,18,14,23,13.10
2019,10,18,14,24,13.20
2019,10,18,14,25,13.20
2019,10,18,14,26,13.20
2019,10,18,14,27,13.10
2019,10,18,14,28,13.10
2019,10,18,14,29,13.10
2019,10,18,14,30,13.10
2019,10,18,14,31,13.10
2019,10,18,14,32,13.00
2019,10,18,14,33,13.00
2019,10,18,14,34,12.90
2019,10,18,14,35,12.90
2019,10,18,14,36,12.80
2019,10,18,14,37,12.80
2019,10,18,14,38,12.70
2019,10,18,14,39,12.70
2019,10,18,14,40,12.60
2019,10,18,14,41,12.60
2019,10,18,14,42,12.60
2019,10,18,14,43,12.60
2019,10,18,14,44,12.60
2019,10,18,14,45,12.50
2019,10,18,14,46,12.50
2019,10,18,14,47,12.60
2019,10,18,14,48,12.50
2019,10,18,14,49,12.50
2019,10,18,14,50,12.60
2019,10,18,14,51,12.60
2019,10,18,14,52,12.60
2019,10,18,14,53,12.70
2019,10,18,14,54,12.70
2019,10,18,14,55,12.80
2019,10,18,14,56,12.80
2019,10,18,14,57,12.80
2019,10,18,14,58,12.80
2019,10,18,14,59,12.80
2019,10,18,15,00,12.80
2019,10,18,15,01,12.80
2019,10,18,15,02,12.80
2019,10,18,15,03,12.80
2019,10,18,15,04,12.80
2019,10,18,15,05,12.80
2019,10,18,15,06,12.80
2019,10,18,15,07,12.80
2019,10,18,15,08,12.80
2019,10,18,15,09,12.80
2019,10,18,15,10,12.80
2019,10,18,15,11,12.80
2019,10,18,15,12,12.80
2019,10,18,15,13,12.80
2019,10,18,15,14,12.80
2019,10,18,15,15,12.70
2019,10,18,15,16,12.70
2019,10,18,15,17,12.60
2019,10,18,15,18,12.60
2019,10,18,15,19,12.60
2019,10,18,15,20,12.60
2019,10,18,15,21,12.60
2019,10,18,15,22,12.50
2019,10,18,15,23,12.60
2019,10,18,15,24,12.60
2019,10,18,15,25,12.50
2019,10,18,15,26,12.50
2019,10,18,15,27,12.50
2019,10,18,15,28,12.50
2019,10,18,15,29,12.50
2019,10,18,15,30,12.50
2019,10,18,15,31,12.50
2019,10,18,15,32,12.50
2019,10,18,15,33,12.50
2019,10,18,15,34,12.50
2019,10,18,15,35,12.50
2019,10,18,15,36,12.40
2019,10,18,15,37,12.40
2019,10,18,15,38,12.40
2019,10,18,15,39,12.40
2019,10,18,15,40,12.40
2019,10,18,15,41,12.40
2019,10,18,15,42,12.40
2019,10,18,15,43,12.40
2019,10,18,15,44,12.40
2019,10,18,15,45,12.30
2019,10,18,15,46,12.30
2019,10,18,15,47,12.30
2019,10,18,15,48,12.30
2019,10,18,15,49,12.30
2019,10,18,15,50,12.30
2019,10,18,15,51,12.20
2019,10,18,15,52,12.20
2019,10,18,15,53,12.20
2019,10,18,15,54,12.20
2019,10,18,15,55,12.20
2019,10,18,15,56,12.20
2019,10,18,15,57,12.20
2019,10,18,15,58,12.20
2019,10,18,15,59,12.20
2019,10,18,16,00,12.20
2019,10,18,16,01,12.20
2019,10,18,16,02,12.20
2019,10,18,16,03,12.20
2019,10,18,16,04,12.20
2019,10,18,16,05,12.10
2019,10,18,16,06,12.10
2019,10,18,16,07,12.10
2019,10,18,16,08,12.10
2019,10,18,16,09,12.10
2019,10,18,16,10,12.10
2019,10,18,16,11,12.10
2019,10,18,16,12,12.10
2019,10,18,16,13,12.10
2019,10,18,16,14,12.10
2019,10,18,16,15,12.10
2019,10,18,16,16,12.10
2019,10,18,16,17,12.10
2019,10,18,16,18,12.10
2019,10,18,16,19,12.10
2019,10,18,16,20,12.10
2019,10,18,16,21,12.10
2019,10,18,16,22,12.10
2019,10,18,16,23,12.10
2019,10,18,16,24,12.10
2019,10,18,16,25,12.20
2019,10,18,16,26,12.20
2019,10,18,16,27,12.20
2019,10,18,16,28,12.20
2019,10,18,16,29,12.30
2019,10,18,16,30,12.30
2019,10,18,16,31,12.30
2019,10,18,16,32,12.30
2019,10,18,16,33,12.30
2019,10,18,16,34,12.30
2019,10,18,16,35,12.30
2019,10,18,16,36,12.30
2019,10,18,16,37,12.30
2019,10,18,16,38,12.30
2019,10,18,16,39,12.30
2019,10,18,16,40,12.30
2019,10,18,16,41,12.30
2019,10,18,16,42,12.30
2019,10,18,16,43,12.30
2019,10,18,16,44,12.30
2019,10,18,16,45,12.20
2019,10,18,16,46,12.20
2019,10,18,16,47,12.20
2019,10,18,16,48,12.20
2019,10,18,16,49,12.20
2019,10,18,16,50,12.20
2019,10,18,16,51,12.20
2019,10,18,16,52,12.10
2019,10,18,16,53,12.10
2019,10,18,16,54,12.10
2019,10,18,16,55,12.10
2019,10,18,16,56,12.10
2019,10,18,16,57,12.10
2019,10,18,16,58,12.10
2019,10,18,16,59,12.10
2019,10,18,17,00,12.10
2019,10,18,17,01,12.10
2019,10,18,17,02,12.10
2019,10,18,17,03,12.10
2019,10,18,17,04,12.10
2019,10,18,17,05,12.10
2019,10,18,17,06,12.10
2019,10,18,17,07,12.10
2019,10,18,17,08,12.10
2019,10,18,17,09,12.10
2019,10,18,17,10,12.10
2019,10,18,17,11,12.10
2019,10,18,17,12,12.10
2019,10,18,17,13,12.10
2019,10,18,17,14,12.10
2019,10,18,17,15,12.10
2019,10,18,17,16,12.10
2019,10,18,17,17,12.10
2019,10,18,17,18,12.10
2019,10,18,17,19,12.10
2019,10,18,17,20,12.10
2019,10,18,17,21,12.10
2019,10,18,17,22,12.00
2019,10,18,17,23,12.00
2019,10,18,17,24,11.90
2019,10,18,17,25,11.90
2019,10,18,17,26,11.80
2019,10,18,17,27,11.80
2019,10,18,17,28,11.70
2019,10,18,17,29,11.70
2019,10,18,17,30,11.70
2019,10,18,17,31,11.70
2019,10,18,17,32,11.60
2019,10,18,17,33,11.60
2019,10,18,17,34,11.60
2019,10,18,17,35,11.60
2019,10,18,17,36,11.60
2019,10,18,17,37,11.60
2019,10,18,17,38,11.60
2019,10,18,17,39,11.60